カタログに戻る

FENGYUN 1C DEB

運用中SSO
NORAD 31081·DEBRIS·🇨🇳 China

打ち上げ May 10, 1999 から Taiyuan Satellite Launch Center

Loading…

次のパス (今後24時間)

TLE

最新Source: Space-Track

元期: Sep 13, 2026, 07:26 UTC

1 31081U 99025BGB 26256.31028917  .00000034  00000-0  45756-4 0  9998
2 31081  98.7603 269.0500 0048195 178.3069 195.7025 14.06347433  3110

AllMySatでFENGYUN 1C DEBをリアルタイム追跡

Download on the App Store